Regional Weather Roundup
Issued by NWS Burlington, VT

Home | Current Version | Previous Version | Text Only | Print | Product List | Glossary On
Versions: 1 2 3 4 5 6 7 8 9 10 11 12 13 14 15 16 17 18 19 20 21 22 23 24 25 26 27 28 29 30 31 32 33 34 35 36 37 38 39 40 41 42 43 44 45 46 47 48 49 50
000
ASUS41 KBTV 271130
RWRBTV
VERMONT REGIONAL WEATHER ROUNDUP
NATIONAL WEATHER SERVICE BURLINGTON VT
600 AM EST TUE JAN 27 2015

NOTE: "FAIR" INDICATES FEW OR NO CLOUDS BELOW 12,000 FEET WITH NO
SIGNIFICANT WEATHER AND/OR OBSTRUCTIONS TO VISIBILITY.

* THESE REPORTS ARE NOT UNDER NWS QUALITY CONTROL AND/OR DO NOT
  REPORT WEATHER SUCH AS PRECIPITATION AND FOG.

VTZ001>019-271200-
_____VERMONT_____


CITY           SKY/WX    TMP DP  RH WIND       PRES   REMARKS
BURLINGTON     CLOUDY     8  -2  63 N10       29.96F WCI  -6
MONTPELIER     CLOUDY     9  -1  64 N8        29.87F
MORRISVILLE    CLOUDY    11  -2  56 N8        29.92F
ST. JOHNSBURY*   N/A     14  -2  49 MISG      29.85F
MIDDLEBURY*    CLOUDY     6   0  74 N16G23    29.88F WCI -12
RUTLAND*       CLOUDY     7   0  72 N5        29.80F
SPRINGFIELD    LGT SNOW  12   7  80 N8G20     29.80F VSB 3/4
HIGHGATE*      FAIR       8  -3  61 N10       30.00S WCI  -7
NEWPORT*       CLOUDY     6  -4  63 N17       29.92S WCI -13
BENNINGTON     FLURRIES  12   6  77 NW6       29.74F
SUTTON*          N/A      9 N/A N/A MISG        N/A
GALLUP MILLS*    N/A     10 N/A N/A MISG        N/A
UNION VILLAGE*   N/A     14 N/A N/A MISG        N/A
MT. MANSFIELD*   N/A      1 N/A N/A CALM        N/A

_____LAKE CHAMPLAIN_____


CITY           SKY/WX    TMP DP  RH WIND       PRES   REMARKS
BURTON ISLAND*   N/A     10   1  67 N6          N/A
COLCHESTER RF*   N/A     10   5  79 N24         N/A  WCI -10
DIAMOND ISL*     N/A     10   1  67 NW25        N/A  WCI -10

$$

NYZ007-026>031-035-052-083-271200-
_____NORTHERN NEW YORK_____


CITY           SKY/WX    TMP DP  RH WIND       PRES   REMARKS
PLATTSBURGH    CLOUDY     7  -4  60 N18G25    30.00S WCI -12
SARANAC LAKE   CLOUDY     3  -6  66 NE12      29.81F WCI -13
MASSENA        CLOUDY     6  -3  66 NE16G24   30.06F WCI -12
OGDENSBURG*    SUNNY      3  -2  78 NE12      30.03S WCI -13
POTSDAM*       SUNNY      1  -2  85 NE10G16   30.00F WCI -14
STARK FALLS*     N/A      0 N/A N/A N3          N/A
WATERTOWN      CLOUDY     5  -5  63 NE14      29.98F WCI -12
FT DRUM        MOSUNNY    0  -7  72 NE15      29.93F WCI -19
ALBANY         FLURRIES  14   3  61 N13       29.83F WCI   0
GLENS FALLS    CLOUDY    12   0  58 NE8       29.86F

$$
NHZ002-005-011-271200-
_____NEW HAMPSHIRE_____


CITY           SKY/WX    TMP DP  RH WIND       PRES   REMARKS
LEBANON        LGT SNOW  14   9  80 N13       29.79F VSB 3/4 WCI   0
KEENE          CLOUDY    16  10  79 N16G25    29.71F WCI   0
MT WASHINGTON  SNOW       1   1 100 E72         N/A  VSB 1/16WCI -33
PLYMOUTH       FLURRIES  16  12  82 W6        29.77F
WHITEFIELD     CLOUDY    14  -8  37 E13       29.82F WCI   0

$$

_____REGIONAL QUEBEC LOCATIONS_____


CITY           SKY/WX    TMP DP  RH WIND       PRES   REMARKS
MONTREAL       CLOUDY     5  -4  66 NE21G31   30.09S WCI -16
QUEBEC CITY    PTSUNNY    5  -6  61 NE16G24   30.20R WCI -14
SHERBROOKE     CLOUDY     3  -6  66 NE8       29.99S

_____REGIONAL ONTARIO LOCATIONS_____


CITY           SKY/WX    TMP DP  RH WIND       PRES   REMARKS
OTTAWA         MOSUNNY    3  -8  60 N10       30.08S WCI -12

______KEY______
VSB  - VISIBILITY IN MILES
WCI  - WIND CHILL INDEX
HX   - HEAT INDEX
$$
NNNN


USA.gov is the U.S. government's official web portal to all federal, state and local government web resources and services.